STARLINK-11164, 60120

Orbit data source: Space-Track

STARLINK-11164, 60120 is a payload satellite owned by SpaceX/Seattle (US) in LEO that was launched on Mon, 24 Jun 2024 UTC via an FALCON 9 launch vehicle from the Air Force Western Test Range (AFWTR). Payload-class satellites include a variety of spacecraft equipped with specific instruments for various scientific and technological missions. These include communications satellites like Starlink; space stations such as the ISS; scientific satellites like the Hubble; Earth observation satellites from companies like Planet Labs, Umbra, and HawkEye 360; GPS; miniature CubeSats for education and research; and military/defense satellites.

Loading next visibility...
Identifier
60120, 2024-118H
Orbit
LEO
Country
Flag of USUS
Related business
Manufacturer
SpaceX/Seattle
Mission
Operational Commercial Communications
Bus & Motor
STARLINK V2MD, Unknown motor
Mass
960 kg wet, ~910 kg dry
Launch date (UTC)
2024-06-24 (1 year ago)
Launch vehicle
FALCON 9
Launch site
Air Force Western Test Range (AFWTR)
Object type
Payload
Rocket body
Debris
Shape & HBR
Box + 2 Pan, 18.1 m
Radar Cross Section
36.964 m², Large (>1 m²)

Expand to show TLE details & history
Last TLE update: 13 hours ago

TLE from 13 hours ago
0 STARLINK-11164
1 60120U 24118H   25303.99029080  .00001788  00000-0  19620-4 0  9991
2 60120  53.1581 140.5534 0001375  70.9717 289.1450 15.69702243 77623
Epoch: 2025-10-30T23:46Z
TLE epoch observation values (Epoch: 2025-10-30T23:46:01.125Z)
Latitude
0.00002°
Longitude
104.50757°
Altitude
360.36 km
Speed
7.694 km/s
True Right ascension
09h 22m 12s
True Declination
0° 00' 00"
Sunlit
Object was in daylight at epoch
Visualization orbit readout
Latitude
Unknown
Longitude
Unknown
Altitude
Unknown
Speed
Unknown
Apparent Right ascension
Unknown
Apparent Declination
Unknown
Sunlit
N/A
Visualization observer readout
Local Sidereal Time
08:10:40
Azimuth
Unknown
Elevation
Unknown
Doppler factor
Unknown
Orbital elements
Apogee altitude
360.936 km
Perigee altitude
359.083 km
Semi-major axis
6,738.147 km
Eccentricity
0.00014
Inclination
53.1581°
RAAN
140.5534°
Arg. of periapsis
70.9717°
True anomaly
289.13011°
Mean anomaly
289.145°
Eccentric anomaly
289.13756°
Mean motion
3.92403 °/min
Orbital period
91.74 mins
BSTAR
0.00001962
Loading maneuver chart data...
Computing Atmospheric mass density...
Loading historical data...
Loading historical data...
Loading historical data...
Loading historical data...
Loading historical data...
Loading historical data...
Loading historical data...

Documentation

Showing up to 5 results
|